EN

Hourly Weather Alzira

Today, 23 January, Saturday

Time Temperature Precipitation Wind Pressure Humidity
00:00 +8°C° 0 mm 6 mps 757 mmHg 70%
01:00 +8°C° 0 mm 6 mps 757 mmHg 69%
02:00 +8°C° 0 mm 6 mps 757 mmHg 69%
03:00 +8°C° 0 mm 7 mps 757 mmHg 68%
04:00 +8°C° 0 mm 7 mps 757 mmHg 67%
05:00 +8°C° 0 mm 7 mps 757 mmHg 67%
06:00 +8°C° 0 mm 7 mps 757 mmHg 66%
07:00 +9°C° 0 mm 8 mps 757 mmHg 65%
08:00 +9°C° 0 mm 8 mps 757 mmHg 64%
09:00 +10°C° 0 mm 8 mps 758 mmHg 63%
10:00 +11°C° 0 mm 9 mps 757 mmHg 59%
11:00 +12°C° 0 mm 10 mps 757 mmHg 56%
12:00 +13°C° 0 mm 10 mps 757 mmHg 52%
13:00 +13°C° 0 mm 10 mps 757 mmHg 53%
14:00 +13°C° 0 mm 10 mps 756 mmHg 54%
15:00 +13°C° 0 mm 10 mps 756 mmHg 55%
16:00 +13°C° 0 mm 9 mps 755 mmHg 58%
17:00 +12°C° 0 mm 7 mps 755 mmHg 62%
18:00 +11°C° 0 mm 6 mps 754 mmHg 65%
19:00 +11°C° 0 mm 6 mps 753 mmHg 67%
20:00 +11°C° 0 mm 6 mps 753 mmHg 68%
21:00 +11°C° 0 mm 6 mps 752 mmHg 69%
22:00 +11°C° 0 mm 6 mps 752 mmHg 69%
23:00 +12°C° 0 mm 7 mps 751 mmHg 69%

Tomorrow, 24 January, Sunday

Time Temperature Precipitation Wind Pressure Humidity
00:00 +12°C° 0 mm 8 mps 751 mmHg 69%
01:00 +13°C° 0.1 mm 9 mps 750 mmHg 68%
02:00 +14°C° 0.1 mm 11 mps 750 mmHg 66%
03:00 +15°C° 0.1 mm 12 mps 750 mmHg 65%
04:00 +14°C° 0 mm 12 mps 750 mmHg 62%
05:00 +13°C° 0 mm 13 mps 751 mmHg 60%
06:00 +12°C° 0 mm 13 mps 752 mmHg 57%
07:00 +12°C° 0 mm 12 mps 753 mmHg 58%
08:00 +12°C° 0 mm 11 mps 753 mmHg 58%
09:00 +12°C° 0 mm 10 mps 754 mmHg 59%
10:00 +13°C° 0 mm 9 mps 755 mmHg 54%
11:00 +15°C° 0 mm 8 mps 755 mmHg 49%
12:00 +16°C° 0 mm 6 mps 755 mmHg 44%
13:00 +16°C° 0 mm 7 mps 755 mmHg 45%
14:00 +16°C° 0 mm 8 mps 755 mmHg 45%
15:00 +16°C° 0 mm 8 mps 755 mmHg 45%
16:00 +15°C° 0 mm 8 mps 756 mmHg 49%
17:00 +14°C° 0 mm 7 mps 756 mmHg 54%
18:00 +12°C° 0 mm 7 mps 757 mmHg 59%
19:00 +11°C° 0 mm 6 mps 757 mmHg 60%
20:00 +11°C° 0 mm 6 mps 758 mmHg 61%
21:00 +11°C° 0 mm 6 mps 758 mmHg 63%
22:00 +10°C° 0 mm 5 mps 758 mmHg 64%
23:00 +10°C° 0 mm 5 mps 758 mmHg 65%

Day after tomorrow, 25 January, Monday

Time Temperature Precipitation Wind Pressure Humidity
00:00 +11°C° 0 mm 4 mps 759 mmHg 66%
01:00 +11°C° 0 mm 4 mps 759 mmHg 66%
02:00 +10°C° 0 mm 4 mps 759 mmHg 66%
03:00 +10°C° 0 mm 3 mps 759 mmHg 67%
04:00 +10°C° 0 mm 3 mps 759 mmHg 68%
05:00 +10°C° 0 mm 3 mps 759 mmHg 70%
06:00 +10°C° 0 mm 3 mps 759 mmHg 71%
07:00 +10°C° 0 mm 3 mps 760 mmHg 71%
08:00 +11°C° 0 mm 4 mps 760 mmHg 70%
09:00 +11°C° 0 mm 4 mps 761 mmHg 70%
10:00 +13°C° 0 mm 4 mps 761 mmHg 64%
11:00 +14°C° 0 mm 4 mps 761 mmHg 59%
12:00 +15°C° 0 mm 4 mps 761 mmHg 53%
13:00 +15°C° 0 mm 4 mps 761 mmHg 53%
14:00 +15°C° 0 mm 4 mps 761 mmHg 53%
15:00 +17°C° 0 mm 4 mps 760 mmHg 52%
16:00 +14°C° 0 mm 4 mps 761 mmHg 57%
17:00 +13°C° 0 mm 3 mps 761 mmHg 61%
18:00 +12°C° 0 mm 3 mps 762 mmHg 65%
19:00 +11°C° 0 mm 3 mps 762 mmHg 69%
20:00 +10°C° 0 mm 3 mps 763 mmHg 72%
21:00 +10°C° 0 mm 3 mps 763 mmHg 75%
22:00 +10°C° 0 mm 3 mps 763 mmHg 76%
23:00 +9°C° 0 mm 3 mps 763 mmHg 78%

26 January, Tuesday

Time Temperature Precipitation Wind Pressure Humidity
00:00 +9°C° 0 mm 3 mps 763 mmHg 79%
01:00 +9°C° 0 mm 3 mps 763 mmHg 80%
02:00 +9°C° 0 mm 3 mps 763 mmHg 81%
03:00 +9°C° 0 mm 3 mps 763 mmHg 82%
04:00 +9°C° 0 mm 3 mps 763 mmHg 82%
05:00 +9°C° 0 mm 3 mps 763 mmHg 83%
06:00 +9°C° 0 mm 3 mps 763 mmHg 83%
07:00 +11°C° 0 mm 3 mps 764 mmHg 80%
08:00 +12°C° 0 mm 3 mps 764 mmHg 77%
09:00 +13°C° 0 mm 3 mps 764 mmHg 74%
10:00 +15°C° 0 mm 4 mps 764 mmHg 68%
11:00 +17°C° 0 mm 5 mps 764 mmHg 62%
12:00 +20°C° 0 mm 6 mps 764 mmHg 56%
13:00 +20°C° 0 mm 6 mps 763 mmHg 57%
14:00 +20°C° 0 mm 7 mps 763 mmHg 57%
15:00 +20°C° 0 mm 7 mps 763 mmHg 57%
16:00 +19°C° 0 mm 6 mps 763 mmHg 61%
17:00 +17°C° 0 mm 6 mps 763 mmHg 64%
18:00 +16°C° 0 mm 5 mps 763 mmHg 67%
19:00 +15°C° 0 mm 5 mps 763 mmHg 70%
20:00 +15°C° 0 mm 5 mps 764 mmHg 73%
21:00 +15°C° 0 mm 5 mps 764 mmHg 75%
22:00 +14°C° 0 mm 5 mps 764 mmHg 77%
23:00 +14°C° 0 mm 4 mps 764 mmHg 80%

27 January, Wednesday

Time Temperature Precipitation Wind Pressure Humidity
00:00 +14°C° 0 mm 4 mps 764 mmHg 82%
01:00 +14°C° 0 mm 4 mps 764 mmHg 82%
02:00 +14°C° 0 mm 4 mps 764 mmHg 82%
03:00 +14°C° 0 mm 4 mps 764 mmHg 82%
04:00 +14°C° 0 mm 4 mps 764 mmHg 83%
05:00 +14°C° 0 mm 3 mps 764 mmHg 84%
06:00 +13°C° 0 mm 3 mps 764 mmHg 86%
07:00 +14°C° 0 mm 3 mps 764 mmHg 83%
08:00 +16°C° 0 mm 3 mps 765 mmHg 79%
09:00 +17°C° 0 mm 3 mps 765 mmHg 76%
10:00 +19°C° 0 mm 3 mps 765 mmHg 70%
11:00 +20°C° 0 mm 3 mps 765 mmHg 63%
12:00 +22°C° 0 mm 3 mps 765 mmHg 56%
13:00 +22°C° 0 mm 4 mps 764 mmHg 56%
14:00 +22°C° 0 mm 4 mps 764 mmHg 55%
15:00 +22°C° 0 mm 4 mps 763 mmHg 54%
16:00 +20°C° 0 mm 4 mps 763 mmHg 61%
17:00 +18°C° 0 mm 3 mps 764 mmHg 67%
18:00 +17°C° 0 mm 3 mps 764 mmHg 73%
19:00 +16°C° 0 mm 3 mps 764 mmHg 75%
20:00 +14°C° 0 mm 3 mps 764 mmHg 76%
21:00 +15°C° 0 mm 2 mps 765 mmHg 77%
22:00 +15°C° 0 mm 2 mps 765 mmHg 78%
23:00 +13°C° 0 mm 3 mps 765 mmHg 78%

28 January, Thursday

Time Temperature Precipitation Wind Pressure Humidity
00:00 +13°C° 0 mm 3 mps 765 mmHg 79%
01:00 +13°C° 0 mm 3 mps 765 mmHg 79%
02:00 +13°C° 0 mm 3 mps 765 mmHg 79%
03:00 +12°C° 0 mm 3 mps 765 mmHg 80%
04:00 +12°C° 0 mm 3 mps 765 mmHg 80%
05:00 +12°C° 0 mm 3 mps 765 mmHg 81%
06:00 +12°C° 0 mm 3 mps 765 mmHg 82%
07:00 +13°C° 0 mm 3 mps 765 mmHg 79%
08:00 +14°C° 0 mm 3 mps 765 mmHg 76%
09:00 +16°C° 0 mm 3 mps 765 mmHg 73%
10:00 +18°C° 0 mm 3 mps 765 mmHg 66%
11:00 +20°C° 0 mm 3 mps 765 mmHg 59%
12:00 +22°C° 0 mm 3 mps 765 mmHg 52%
13:00 +22°C° 0 mm 3 mps 765 mmHg 52%
14:00 +22°C° 0 mm 4 mps 765 mmHg 52%
15:00 +23°C° 0 mm 4 mps 764 mmHg 53%
16:00 +21°C° 0 mm 4 mps 765 mmHg 59%
17:00 +19°C° 0 mm 4 mps 765 mmHg 65%
18:00 +17°C° 0 mm 4 mps 765 mmHg 72%
Show more